www.pogodaiklimat.ru

Погода и климат >> Архив погоды >> Норвегия >> Stromtangen Fyr


ПОГОДА в Stromtangen Fyr

  • Прогноз погоды в Stromtangen Fyr
  • Монитор погоды в Stromtangen Fyr
  • Климат города

АРХИВ ПОГОДЫ в Stromtangen Fyr

Время (UTC), дата Ветер
(напр.,м/с)
 
Видим.   Явления Облачность Т
(С)
Тd
(С)
f
(%)
Тe
(С)
Тes
(С)
Комфортность P
(гПа)
Po
(гПа)
Тmin
(С)
Tmax
(С)
R
(мм)
R24
(мм)
S
(см)
02 11.10 В 4
{5}
н/о н/о +10.6 +9 +9 1024.6 1023.3
01 11.10 В 4
{5}
н/о н/о +10.6 +9 +9 1025.0 1023.7
03 11.10 СВ 5
{6}
н/о н/о +10.1 +8 +8 1024.4 1023.1
04 11.10 СВ 6
{7}
н/о н/о +9.5 +7 +7 1024.0 1022.7
05 11.10 СВ 4
{7}
н/о н/о +9.0 +7 +7 1023.7 1022.4
06 11.10 СВ 6
{7}
н/о н/о +8.9 +6 +6 1023.5 1022.2 +8.9 +12.3
08 11.10 СВ 6
{8}
н/о н/о +10.2 +8 +8 1023.3 1022.0
07 11.10 СВ 6
{7}
н/о н/о +9.1 +7 +7 1023.6 1022.3
09 11.10 СВ 6
{8}
н/о н/о +11.6 +10 +10 1023.2 1021.9
10 11.10 СВ 4
{6}
н/о н/о +13.3 +12 +12 1022.8 1021.5
11 11.10 СВ 4
{6}
н/о н/о +14.3 +14 +14 1022.1 1020.8
12 11.10 СВ 5
{8}
н/о н/о +15.5 +15 +15 1021.5 1020.2
14 11.10 В 5
{6}
н/о н/о +16.3 +16 +16 1020.3 1019.1
13 11.10 В 5
{6}
н/о н/о +16.2 +15 +15 1020.8 1019.6
15 11.10 В 6
{7}
н/о н/о +16.1 +15 +15 1019.5 1018.3
16 11.10 В 7
{8}
н/о н/о +14.9 +13 +13 1018.9 1017.6
17 11.10 В 7
{8}
н/о н/о +14.4 +13 +13 1018.9 1017.6
18 11.10 В 7
{8}
н/о н/о +13.7 +12 +12 1019.1 1017.8 +8.7 +17.0
20 11.10 В 6
{9}
н/о н/о +13.6 +12 +12 1019.2 1017.9
19 11.10 В 7
{9}
н/о н/о +14.0 +12 +12 1019.2 1017.9
21 11.10 В 7
{8}
н/о н/о +13.3 +11 +11 1019.2 1017.9
22 11.10 В 5
{8}
н/о н/о +13.0 +12 +12 1019.4 1018.1
23 11.10 В 5
{7}
н/о н/о +12.5 +11 +11 1019.2 1017.9
00 12.10 В 5
{9}
н/о н/о +11.9 +10 +10 1019.1 1017.8
02 12.10 В 5
{7}
н/о н/о +10.8 +9 +9 1018.3 1017.0
01 12.10 В 5
{6}
н/о н/о +11.3 +10 +10 1018.5 1017.2
03 12.10 СВ 6
{7}
н/о н/о +10.2 +8 +8 1018.5 1017.2
04 12.10 СВ 7
{8}
н/о н/о +9.8 +7 +7 1018.1 1016.8
05 12.10 СВ 6
{8}
н/о н/о +9.6 +7 +7 1018.4 1017.1
06 12.10 СВ 7
{9}
н/о н/о +9.5 +7 +7 1018.3 1017.0 +9.4 +14.1
08 12.10 В 6
{7}
н/о н/о +10.2 +8 +8 1018.8 1017.5
07 12.10 СВ 6
{8}
н/о н/о +9.6 +7 +7 1018.4 1017.1
09 12.10 н/о +11.4 1018.1 1016.8
10 12.10 В 4
{6}
н/о н/о +12.1 +11 +11 1018.8 1017.5
11 12.10 В 4
{6}
н/о н/о +13.0 +12 +12 1017.9 1016.6
12 12.10 В 4
{8}
н/о н/о +13.7 +13 +13 1017.7 1016.4
14 12.10 Ю 7
{10}
н/о н/о +14.6 +13 +13 1017.3 1016.0
13 12.10 В 3
{5}
н/о н/о +14.1 +14 +14 1017.6 1016.3
15 12.10 Ю 10
{13}
н/о н/о +14.0 +12 +12 1017.2 1015.9
16 12.10 Ю 9
{14}
н/о н/о +13.5 +11 +11 1018.0 1016.7
17 12.10 Ю 9
{11}
н/о н/о +13.4 +11 +11 1017.5 1016.2
18 12.10 Ю 9
{14}
н/о н/о +13.8 +12 +12 1017.7 1016.4 +9.4 +14.6
20 12.10 Ю 6
{8}
н/о н/о +13.4 +12 +12 1018.6 1017.3
19 12.10 Ю 7
{10}
н/о н/о +13.4 +12 +12 1018.1 1016.8
21 12.10 Ю 6
{8}
н/о н/о +13.3 +12 +12 1018.0 1016.7
22 12.10 Ю 7
{9}
н/о н/о +13.7 +12 +12 1017.6 1016.3
23 12.10 Ю 9
{10}
н/о н/о +14.1 +12 +12 1017.0 1015.7
00 13.10 Ю 9
{11}
н/о н/о +14.5 +13 +13 1016.8 1015.5
02 13.10 Ю 11
{14}
н/о н/о +14.7 +13 +13 1015.3 1014.1
01 13.10 Ю 12
{15}
н/о н/о +14.4 +12 +12 1015.9 1014.6
03 13.10 Ю 12
{16}
н/о н/о +14.7 +12 +12 1015.4 1014.2
04 13.10 Ю 13 н/о н/о +14.7 1014.8 1013.6
05 13.10 Ю 12
{16}
н/о н/о +14.9 +13 +13 1014.7 1013.5
06 13.10 Ю 12
{17}
н/о н/о +14.9 +13 +13 1014.9 1013.7 +13.3 +15.1
08 13.10 н/о
07 13.10 Ю 13
{15}
н/о н/о +14.7 +12 +12 1015.0 1013.8
09 13.10 Ю 11
{13}
н/о н/о +14.9 +13 +13 1015.6 1014.4
10 13.10 Ю 10
{12}
н/о н/о +14.7 +13 +13 1015.9 1014.7
11 13.10 Ю 10
{12}
н/о н/о +14.9 +13 +13 1015.8 1014.6
12 13.10 Ю 10
{15}
н/о н/о +14.8 +13 +13 1015.7 1014.5
14 13.10 Ю 12
{16}
н/о н/о +15.1 +13 +13 1014.9 1013.7
13 13.10 Ю 12
{15}
н/о н/о +15.2 +13 +13 1015.2 1014.0
15 13.10 Ю 12
{16}
н/о н/о +15.2 +13 +13 1014.7 1013.5
16 13.10 Ю 12
{16}
н/о н/о +15.3 +13 +13 1014.5 1013.3
17 13.10 Ю 12
{16}
н/о н/о +15.3 +13 +13 1014.6 1013.4
18 13.10 Ю 12
{16}
н/о н/о +15.4 +13 +13 1014.5 1013.3 +14.6 +15.5
20 13.10 Ю 12
{15}
н/о н/о +15.2 +13 +13 1014.8 1013.6
19 13.10 Ю 11
{15}
н/о н/о +15.3 +13 +13 1014.5 1013.3
21 13.10 Ю 12
{14}
н/о н/о +15.4 +13 +13 1014.8 1013.6
22 13.10 Ю 12
{15}
н/о н/о +15.5 +13 +13 1014.3 1013.1
23 13.10 Ю 8
{14}
н/о н/о +14.7 +13 +13 1014.8 1013.6
00 14.10 Ю 6
{15}
н/о н/о +14.5 +13 +13 1014.1 1012.9
02 14.10 Ю 12
{15}
н/о н/о +14.7 +12 +12 1012.9 1011.7
01 14.10 Ю 12
{14}
н/о н/о +14.7 +12 +12 1013.4 1012.2
03 14.10 Ю 11
{15}
н/о н/о +14.8 +13 +13 1012.5 1011.3
04 14.10 Ю 12
{17}
н/о н/о +14.8 +13 +13 1012.2 1011.0
05 14.10 Ю 12
{16}
н/о н/о +15.1 +13 +13 1011.9 1010.7
06 14.10 Ю 11
{17}
н/о н/о +14.8 +13 +13 1011.7 1010.5 +14.3 +15.6
08 14.10 Ю 11
{15}
н/о н/о +14.8 +13 +13 1012.2 1011.0
07 14.10 Ю 11
{14}
н/о н/о +14.7 +13 +13 1011.9 1010.7
09 14.10 Ю 12
{16}
н/о н/о +15.0 +13 +13 1012.0 1010.8
10 14.10 Ю 11
{15}
н/о н/о +15.0 +13 +13 1011.9 1010.7
11 14.10 Ю 12
{16}
н/о н/о +14.6 +12 +12 1011.8 1010.6
12 14.10 Ю 12
{16}
н/о н/о +14.6 +12 +12 1011.1 1009.9
14 14.10 Ю 11
{13}
н/о н/о +14.7 +13 +13 1010.0 1008.8
13 14.10 Ю 10
{15}
н/о н/о +14.6 +13 +13 1010.5 1009.3
15 14.10 Ю 14
{18}
н/о н/о +15.5 +13 +13 1008.8 1007.6
16 14.10 н/о
17 14.10 Ю 12
{16}
н/о н/о +14.9 +13 +13 1008.2 1007.0
18 14.10 Ю 13
{18}
н/о н/о +14.6 +12 +12 1007.9 1006.7 +14.5 +15.5
20 14.10 Ю 11
{15}
н/о н/о +14.1 +12 +12 1008.0 1006.8
19 14.10 Ю 12
{16}
н/о н/о +14.3 +12 +12 1008.1 1006.9
21 14.10 Ю 11
{14}
н/о н/о +13.9 +11 +11 1008.1 1006.9
22 14.10 Ю 10
{14}
н/о н/о +13.9 +12 +12 1007.8 1006.6
23 14.10 Ю 8
{11}
н/о н/о +13.8 +12 +12 1008.0 1006.8
00 15.10 Ю 9
{16}
н/о н/о +13.9 +12 +12 1007.7 1006.5
02 15.10 Ю 8
{10}
н/о н/о +13.8 +12 +12 1007.9 1006.7
01 15.10 Ю 8
{11}
н/о н/о +13.8 +12 +12 1008.1 1006.9
03 15.10 Ю 8
{10}
н/о н/о +13.7 +12 +12 1008.1 1006.9
04 15.10 Ю 8 н/о н/о +13.7 1008.1 1006.9
05 15.10 Ю 8
{10}
н/о н/о +13.7 +12 +12 1008.4 1007.2
06 15.10 ЮЗ 9
{11}
н/о н/о +13.7 +12 +12 1009.1 1007.9 +13.6 +14.6
08 15.10 н/о
07 15.10 Ю 8
{10}
н/о н/о +13.3 +11 +11 1009.7 1008.5
09 15.10 ЮЗ 9
{11}
н/о н/о +12.9 +11 +11 1011.1 1009.8
10 15.10 Ю 7
{10}
н/о н/о +12.8 +11 +11 1011.2 1009.9
11 15.10 ЮЗ 7
{9}
н/о н/о +12.9 +11 +11 1011.4 1010.1
12 15.10 Ю 8
{11}
н/о н/о +13.0 +11 +11 1011.5 1010.2
14 15.10 Ю 7
{9}
н/о н/о +12.9 +11 +11 1011.8 1010.5
13 15.10 Ю 8
{9}
н/о н/о +13.0 +11 +11 1011.6 1010.3
15 15.10 Ю 6
{8}
н/о н/о +12.7 +11 +11 1012.1 1010.8
16 15.10 Ю 6
{7}
н/о н/о +12.6 +11 +11 1012.6 1011.3
17 15.10 ЮЗ 3
{6}
н/о н/о +12.6 +12 +12 1012.9 1011.6
18 15.10 Ю 4
{9}
н/о н/о +12.4 +11 +11 1013.1 1011.8 +12.4 +13.7
20 15.10 ЮЗ 5
{7}
н/о н/о +12.2 +11 +11 1014.2 1012.9
19 15.10 Ю 6
{6}
н/о н/о +12.3 +11 +11 1013.4 1012.1
21 15.10 З 2
{5}
н/о н/о +11.5 +11 +11 1014.2 1012.9
22 15.10 ЮЗ 3
{5}
н/о н/о +11.4 +11 +11 1014.7 1013.4
23 15.10 З 3
{5}
н/о н/о +11.0 +10 +10 1015.5 1014.2
00 16.10 З 1
{7}
н/о н/о +10.9 +12 +12 1015.6 1014.3
02 16.10 С 3
{4}
н/о н/о +9.7 +9 +9 1016.0 1014.7
01 16.10 н/о
03 16.10 С 3
{4}
н/о н/о +9.4 +8 +8 1016.3 1015.0
04 16.10 СВ 3
{4}
н/о н/о +8.9 +8 +8 1016.6 1015.3
05 16.10 С 3
{4}
н/о н/о +8.1 +7 +7 1017.2 1015.9
06 16.10 С 3
{4}
н/о н/о +7.4 +6 +6 1018.2 1016.9 +7.4 +12.4
08 16.10 В 6
{9}
н/о н/о +6.8 +4 +4 1018.5 1017.2
07 16.10 СВ 6
{9}
н/о н/о +6.2 +3 +3 1018.5 1017.2
09 16.10 С 3
{7}
н/о н/о +7.2 +6 +6 1019.2 1017.9
10 16.10 СВ 4
{6}
н/о н/о +7.6 +6 +6 1019.2 1017.9
11 16.10 СВ 5
{7}
н/о н/о +7.5 +5 +5 1018.6 1017.3
12 16.10 СВ 4
{9}
н/о н/о +8.1 +6 +6 1018.6 1017.3
14 16.10 СВ 3
{5}
н/о н/о +8.7 +7 +7 1018.0 1016.7
13 16.10 СВ 3
{5}
н/о н/о +8.4 +7 +7 1018.8 1017.5
15 16.10 СВ 4
{6}
н/о н/о +9.3 +8 +8 1017.7 1016.4
16 16.10 СВ 4
{5}
н/о н/о +9.4 +8 +8 1017.6 1016.3
17 16.10 СВ 3
{5}
н/о н/о +9.4 +8 +8 1017.8 1016.5
18 16.10 С 2
{6}
н/о н/о +9.4 +9 +9 1017.7 1016.4 +6.0 +9.5
20 16.10 СВ 2
{3}
н/о н/о +9.5 +9 +9 1017.0 1015.7
19 16.10 С 2
{3}
н/о н/о +9.3 +9 +9 1017.5 1016.2
21 16.10 С 1
{3}
н/о н/о +9.5 +10 +10 1016.9 1015.6
22 16.10 С 1
{2}
н/о н/о +9.6 +10 +10 1016.8 1015.5
23 16.10 штиль 0
{2}
н/о н/о +9.8 +10 +10 1016.3 1015.0
00 17.10 штиль 0
{3}
н/о н/о +9.9 +10 +10 1016.3 1015.0
02 17.10 СВ 3
{3}
н/о н/о +10.1 +9 +9 1015.5 1014.2
01 17.10 В 1
{2}
н/о н/о +10.1 +11 +11 1015.9 1014.6
03 17.10 Ю 5
{7}
н/о н/о +12.2 +11 +11 1015.0 1013.7
04 17.10 Ю 7
{8}
н/о н/о +12.4 +10 +10 1014.6 1013.3
05 17.10 Ю 8
{10}
н/о н/о +12.5 +10 +10 1014.6 1013.3
06 17.10 Ю 8
{10}
н/о н/о +12.6 +10 +10 1014.4 1013.1 +9.3 +12.7
08 17.10 ЮЗ 11
{13}
н/о н/о +12.7 +10 +10 1014.9 1013.6
07 17.10 ЮЗ 10
{11}
н/о н/о +12.9 +10 +10 1014.5 1013.2
09 17.10 ЮЗ 10
{14}
н/о н/о +12.9 +10 +10 1015.2 1013.9
10 17.10 ЮЗ 10
{13}
н/о н/о +12.9 +10 +10 1015.4 1014.1
11 17.10 н/о
12 17.10 ЮЗ 9
{14}
н/о н/о +12.9 +11 +11 1015.3 1014.0
14 17.10
{10}
н/о н/о +12.9 1015.1 1013.8
13 17.10 ЮЗ 8
{10}
н/о н/о +13.0 +11 +11 1015.4 1014.1
15 17.10 ЮЗ 7
{9}
н/о н/о +12.9 +11 +11 1015.3 1014.0
16 17.10 ЮЗ 6
{8}
н/о н/о +12.8 +11 +11 1015.3 1014.0
17 17.10 ЮЗ 7
{9}
н/о н/о +12.8 +11 +11 1015.4 1014.1
18 17.10 ЮЗ 8
{10}
н/о н/о +12.6 +10 +10 1015.8 1014.5 +12.6 +13.0
20 17.10 ЮЗ 8
{10}
н/о н/о +12.9 +11 +11 1015.9 1014.6
19 17.10 ЮЗ 8
{10}
н/о н/о +12.6 +10 +10 1015.8 1014.5
21 17.10 ЮЗ 7
{9}
н/о н/о +13.0 +11 +11 1016.0 1014.7
22 17.10 З 6
{8}
н/о н/о +12.7 +11 +11 1016.2 1014.9
23 17.10 З 5
{7}
н/о н/о +12.4 +11 +11 1016.4 1015.1
00 18.10 З 6
{10}
н/о н/о +12.2 +10 +10 1016.7 1015.4

 

Местоположение метеостанции Stromtangen Fyr (Норвегия): широта 59.15 долгота 10.83 высота над уровнем моря 10 м.

В архиве по умолчанию представлена погода в Stromtangen Fyr за последнюю неделю. Архивные данные за месяц целиком и за предыдущие месяцы, начиная с января 2011 года, Вы можете получить, выбрав интересующий диапазон дат из раскрывающегося списка и нажав кнопку "Ввод!".


*Определитесь, кто Вы:
робот инопланетянин человек

Внимание! Время в таблицах - всемирное. Для получения местного времени необходимо прибавить поправку, которая в Stromtangen Fyr равна 1 ч.

Смотрите также архив погоды в соседних городах и на ближайших метеорологических станциях:

Погода в Ferder Fyr (Норвегия) (22 км)
Погода в Sarpsborg (Норвегия) (22 км)
Погода в Rygge (Норвегия) (26 км)
Погода в Melsom (Норвегия) (29 км)
Погода в Nordkoster (Швеция) (29 км)
Погода в Gullholmen (Норвегия) (34 км)
Погода в Svenner Fyr (Норвегия) (44 км)
Погода в As (Норвегия) (57 км)
Погода в Sande-Galleberg (Норвегия) (63 км)
Погода в Vaderoarna (Швеция) (65 км)

Пояснения к столбцам:

Ветер - указаны скорость ветра в м/с - средняя за 10 мин, порывы в срок и между сроками (в фигурных скобках) и направление, откуда дует ветер: С - северный, СВ - северо-восточный, В - восточный, ЮВ - юго-восточный, Ю - южный, ЮЗ - юго-западный, З - западный, СЗ - северо-западный.
Видимость - горизонтальная дальность видимости в метрах или километрах. При видимости от 1 до 10 км при отсутствии осадков обычно наблюдается дымка, при ухудшении видимости до 1 км и менее - туман. В сухую погоду видимость может ухудшаться дымом, пылью или мглою.
Явления - указаны атмосферные явления, наблюдавшиеся в срок или в последний час перед сроком; фигурными скобками обозначены явления, наблюдавшиеся между сроками (за 1-3 часа до срока); квадратными скобками обозначены град или гололедные отложения с указанием их диаметра в мм.
Облачность - указаны через наклонную черту общая и нижняя облачность в баллах и высота нижней границы облаков в метрах; квадратными скобками обозначены формы облаков: Ci - перистые, Cs - перисто-слоистые, Cc - перисто-кучевые, Ac - высококучевые, As - высокослоистые, Sc - слоисто-кучевые, Ns - слоисто-дождевые, Cu - кучевые, Cb - кучево-дождевые. Подробнее классификацию облаков см. в Атласе облаков (PDF).
T - Температура воздуха - температура, измеренная на высоте 2 м над землей.
Td - Температура точки росы - температура, при понижении до которой содержащийся в воздухе водяной пар достигнет насыщения.
f - Относительная влажность воздуха - влажноcть воздуха, измеренная на высоте 2 м над землей.
Te - Эффективная температура - температура, которую ощущает одетый по сезону человек в тени. Характеристика душности погоды. При расчете учитывается влияние влажности воздуха и скорости ветра на теплоощущения человека.
Tes - Эффективная температура на солнце - температура, которую ощущает человек, с поправкой на солнечный нагрев. Характеристика знойности погоды. Зависит от высоты солнца над горизонтом, облачности и скорости ветра. Ночью, в пасмурную погоду, а также при ветре 12 м/с и более поправка равна нулю.
P - Атмосферное давление - приведенное к уровню моря атмосферное давление.
Po - Атмосферное давление - измеренное на уровне метеостанции атмосферное давление.
Tmin - Минимальная температура - минимум температуры воздуха на высоте 2 м над землей.
Tmax - Максимальная температура - максимум температуры воздуха на высоте 2 м над землей.
R - Количество осадков - Количество выпавших осадков за период времени, мм. При наведении курсора мыши на число - период времени, за который выпало указанное количество осадков.
R24 - Количество осадков - Количество выпавших осадков за 24 часа, мм.
S - Снежный покров - Высота снежного покрова, см. При наведении курсора мыши на число - состояние снежного покрова и степень покрытия местности в баллах.